TimeEST,TemperatureF,Dew PointF,Humidity,Sea Level PressureIn,VisibilityMPH,Wind Direction,Wind SpeedMPH,Gust SpeedMPH,PrecipitationIn,Events,Conditions,WindDirDegrees,DateUTC
12:52 AM,43.0,37.9,82,30.04,10.0,WNW,9.2,-,N/A,,Scattered Clouds,290,2013-11-07 05:52:00
1:52 AM,42.1,36.0,79,30.05,10.0,WNW,9.2,-,N/A,,Clear,290,2013-11-07 06:52:00
2:52 AM,42.1,37.0,82,30.06,10.0,WNW,9.2,-,N/A,,Overcast,290,2013-11-07 07:52:00
3:52 AM,42.1,36.0,79,30.06,10.0,NW,8.1,-,N/A,,Overcast,310,2013-11-07 08:52:00
4:00 AM,42.8,35.6,76,30.05,10.0,WNW,6.9,-,N/A,,Overcast,290,2013-11-07 09:00:00
4:13 AM,41.0,37.4,87,30.06,10.0,WNW,6.9,-,N/A,,Overcast,290,2013-11-07 09:13:00
4:24 AM,41.0,37.4,87,30.06,10.0,West,5.8,-,N/A,,Overcast,270,2013-11-07 09:24:00
4:32 AM,41.0,37.4,87,30.07,10.0,West,8.1,-,N/A,,Overcast,270,2013-11-07 09:32:00
4:52 AM,41.0,37.0,86,30.08,10.0,West,8.1,-,N/A,,Overcast,280,2013-11-07 09:52:00
5:52 AM,39.9,34.0,79,30.09,10.0,West,11.5,-,N/A,,Overcast,280,2013-11-07 10:52:00
6:52 AM,39.9,32.0,73,30.12,10.0,WNW,17.3,21.9,N/A,,Overcast,300,2013-11-07 11:52:00
7:52 AM,37.0,26.1,65,30.16,10.0,WNW,11.5,-,N/A,,Scattered Clouds,300,2013-11-07 12:52:00
8:52 AM,37.9,26.1,62,30.18,10.0,WNW,9.2,-,N/A,,Clear,300,2013-11-07 13:52:00
9:52 AM,39.9,28.0,63,30.17,10.0,West,16.1,21.9,N/A,,Partly Cloudy,280,2013-11-07 14:52:00
10:52 AM,39.9,28.0,63,30.18,10.0,West,15.0,21.9,N/A,,Mostly Cloudy,280,2013-11-07 15:52:00
11:52 AM,43.0,27.0,53,30.17,10.0,WNW,13.8,28.8,N/A,,Mostly Cloudy,300,2013-11-07 16:52:00
12:52 PM,44.1,28.0,53,30.16,10.0,West,13.8,-,N/A,,Mostly Cloudy,280,2013-11-07 17:52:00
1:52 PM,45.0,27.0,49,30.14,10.0,WNW,16.1,26.5,N/A,,Mostly Cloudy,290,2013-11-07 18:52:00
2:52 PM,44.1,27.0,51,30.14,10.0,West,11.5,-,N/A,,Mostly Cloudy,270,2013-11-07 19:52:00
3:52 PM,44.1,28.0,53,30.12,10.0,West,12.7,-,N/A,,Overcast,270,2013-11-07 20:52:00
4:52 PM,44.1,27.0,51,30.12,10.0,West,17.3,23.0,N/A,,Overcast,260,2013-11-07 21:52:00
5:52 PM,43.0,27.0,53,30.14,10.0,West,11.5,-,N/A,,Mostly Cloudy,270,2013-11-07 22:52:00
6:52 PM,42.1,27.0,55,30.15,10.0,West,10.4,-,N/A,,Overcast,270,2013-11-07 23:52:00
7:52 PM,41.0,28.0,60,30.15,10.0,West,9.2,-,N/A,,Overcast,260,2013-11-08 00:52:00
8:52 PM,41.0,30.9,67,30.14,10.0,West,11.5,-,0.00,,Overcast,280,2013-11-08 01:52:00
9:52 PM,39.0,33.1,79,30.15,10.0,West,10.4,-,0.00,,Overcast,270,2013-11-08 02:52:00
10:52 PM,39.0,30.9,73,30.15,10.0,West,9.2,-,N/A,,Overcast,270,2013-11-08 03:52:00
11:52 PM,37.0,30.9,79,30.16,10.0,West,9.2,-,N/A,,Scattered Clouds,280,2013-11-08 04:52:00